Year,Month,Day,Hour,Minute,Value (Times are PST for temperature in C)
2004,01,03,00,00,-1.40
2004,01,03,00,01,-1.40
2004,01,03,00,02,-1.50
2004,01,03,00,03,-1.50
2004,01,03,00,04,-1.60
2004,01,03,00,05,-1.60
2004,01,03,00,06,-1.60
2004,01,03,00,07,-1.60
2004,01,03,00,08,-1.60
2004,01,03,00,09,-1.60
2004,01,03,00,10,-1.60
2004,01,03,00,11,-1.70
2004,01,03,00,12,-1.80
2004,01,03,00,13,-1.80
2004,01,03,00,14,-1.80
2004,01,03,00,15,-1.80
2004,01,03,00,16,-1.80
2004,01,03,00,17,-1.80
2004,01,03,00,18,-1.80
2004,01,03,00,19,-1.80
2004,01,03,00,20,-1.80
2004,01,03,00,21,-1.80
2004,01,03,00,22,-1.80
2004,01,03,00,23,-1.80
2004,01,03,00,24,-1.80
2004,01,03,00,25,-1.80
2004,01,03,00,26,-1.80
2004,01,03,00,27,-1.80
2004,01,03,00,28,-1.80
2004,01,03,00,29,-1.80
2004,01,03,00,30,-1.80
2004,01,03,00,31,-1.80
2004,01,03,00,32,-1.80
2004,01,03,00,33,-1.80
2004,01,03,00,34,-1.80
2004,01,03,00,35,-1.90
2004,01,03,00,36,-2.00
2004,01,03,00,37,-2.10
2004,01,03,00,38,-2.00
2004,01,03,00,39,-2.00
2004,01,03,00,40,-2.00
2004,01,03,00,41,-2.10
2004,01,03,00,42,-2.10
2004,01,03,00,43,-2.10
2004,01,03,00,44,-2.10
2004,01,03,00,45,-2.20
2004,01,03,00,46,-2.20
2004,01,03,00,47,-2.20
2004,01,03,00,48,-2.20
2004,01,03,00,49,-2.20
2004,01,03,00,50,-2.20
2004,01,03,00,51,-2.20
2004,01,03,00,52,-2.20
2004,01,03,00,53,-2.20
2004,01,03,00,54,-2.20
2004,01,03,00,55,-2.30
2004,01,03,00,56,-2.30
2004,01,03,00,57,-2.30
2004,01,03,00,58,-2.30
2004,01,03,00,59,-2.30
2004,01,03,01,00,-2.30
2004,01,03,01,01,-2.30
2004,01,03,01,02,-2.30
2004,01,03,01,03,-2.30
2004,01,03,01,04,-2.30
2004,01,03,01,05,-2.30
2004,01,03,01,06,-2.30
2004,01,03,01,07,-2.30
2004,01,03,01,08,-2.30
2004,01,03,01,09,-2.30
2004,01,03,01,10,-2.30
2004,01,03,01,11,-2.30
2004,01,03,01,12,-2.30
2004,01,03,01,13,-2.30
2004,01,03,01,14,-2.30
2004,01,03,01,15,-2.30
2004,01,03,01,16,-2.40
2004,01,03,01,17,-2.40
2004,01,03,01,18,-2.40
2004,01,03,01,19,-2.40
2004,01,03,01,20,-2.40
2004,01,03,01,21,-2.50
2004,01,03,01,22,-2.50
2004,01,03,01,23,-2.50
2004,01,03,01,24,-2.50
2004,01,03,01,25,-2.50
2004,01,03,01,26,-2.50
2004,01,03,01,27,-2.50
2004,01,03,01,28,-2.60
2004,01,03,01,29,-2.60
2004,01,03,01,30,-2.60
2004,01,03,01,31,-2.60
2004,01,03,01,32,-2.60
2004,01,03,01,33,-2.70
2004,01,03,01,34,-2.70
2004,01,03,01,35,-2.70
2004,01,03,01,36,-2.80
2004,01,03,01,37,-2.80
2004,01,03,01,38,-2.80
2004,01,03,01,39,-2.90
2004,01,03,01,40,-2.90
2004,01,03,01,41,-2.90
2004,01,03,01,42,-2.90
2004,01,03,01,43,-2.90
2004,01,03,01,44,-2.90
2004,01,03,01,45,-2.90
2004,01,03,01,46,-2.90
2004,01,03,01,47,-3.00
2004,01,03,01,48,-3.00
2004,01,03,01,49,-3.10
2004,01,03,01,50,-3.20
2004,01,03,01,51,-3.20
2004,01,03,01,52,-3.20
2004,01,03,01,53,-3.10
2004,01,03,01,54,-3.10
2004,01,03,01,55,-3.10
2004,01,03,01,56,-3.20
2004,01,03,01,57,-3.20
2004,01,03,01,58,-3.20
2004,01,03,01,59,-3.20
2004,01,03,02,00,-3.20
2004,01,03,02,01,-3.20
2004,01,03,02,02,-3.20
2004,01,03,02,03,-3.20
2004,01,03,02,04,-3.20
2004,01,03,02,05,-3.20
2004,01,03,02,06,-3.20
2004,01,03,02,07,-3.20
2004,01,03,02,08,-3.20
2004,01,03,02,09,-3.30
2004,01,03,02,10,-3.30
2004,01,03,02,11,-3.20
2004,01,03,02,12,-3.20
2004,01,03,02,13,-3.20
2004,01,03,02,14,-3.20
2004,01,03,02,15,-3.20
2004,01,03,02,16,-3.30
2004,01,03,02,17,-3.30
2004,01,03,02,18,-3.30
2004,01,03,02,19,-3.30
2004,01,03,02,20,-3.20
2004,01,03,02,21,-3.20
2004,01,03,02,22,-3.30
2004,01,03,02,23,-3.30
2004,01,03,02,24,-3.30
2004,01,03,02,25,-3.30
2004,01,03,02,26,-3.30
2004,01,03,02,27,-3.30
2004,01,03,02,28,-3.30
2004,01,03,02,29,-3.30
2004,01,03,02,30,-3.30
2004,01,03,02,31,-3.30
2004,01,03,02,32,-3.30
2004,01,03,02,33,-3.30
2004,01,03,02,34,-3.40
2004,01,03,02,35,-3.50
2004,01,03,02,36,-3.50
2004,01,03,02,37,-3.50
2004,01,03,02,38,-3.50
2004,01,03,02,39,-3.50
2004,01,03,02,40,-3.50
2004,01,03,02,41,-3.60
2004,01,03,02,42,-3.70
2004,01,03,02,43,-3.70
2004,01,03,02,44,-3.70
2004,01,03,02,45,-3.70
2004,01,03,02,46,-3.70
2004,01,03,02,47,-3.70
2004,01,03,02,48,-3.70
2004,01,03,02,49,-3.80
2004,01,03,02,50,-3.80
2004,01,03,02,51,-3.70
2004,01,03,02,52,-3.70
2004,01,03,02,53,-3.70
2004,01,03,02,54,-3.70
2004,01,03,02,55,-3.70
2004,01,03,02,56,-3.70
2004,01,03,02,57,-3.70
2004,01,03,02,58,-3.80
2004,01,03,02,59,-3.90
2004,01,03,03,00,-4.00
2004,01,03,03,01,-4.00
2004,01,03,03,02,-4.00
2004,01,03,03,03,-4.00
2004,01,03,03,04,-4.10
2004,01,03,03,05,-4.10
2004,01,03,03,06,-4.10
2004,01,03,03,07,-4.10
2004,01,03,03,08,-4.20
2004,01,03,03,09,-4.20
2004,01,03,03,10,-4.20
2004,01,03,03,11,-4.20
2004,01,03,03,12,-4.20
2004,01,03,03,13,-4.20
2004,01,03,03,14,-4.20
2004,01,03,03,15,-4.20
2004,01,03,03,16,-4.20
2004,01,03,03,17,-4.20
2004,01,03,03,18,-4.20
2004,01,03,03,19,-4.20
2004,01,03,03,20,-4.20
2004,01,03,03,21,-4.20
2004,01,03,03,22,-4.20
2004,01,03,03,23,-4.20
2004,01,03,03,24,-4.20
2004,01,03,03,25,-4.10
2004,01,03,03,26,-4.10
2004,01,03,03,27,-4.10
2004,01,03,03,28,-4.10
2004,01,03,03,29,-4.10
2004,01,03,03,30,-4.10
2004,01,03,03,31,-4.20
2004,01,03,03,32,-4.20
2004,01,03,03,33,-4.20
2004,01,03,03,34,-4.20
2004,01,03,03,35,-4.20
2004,01,03,03,36,-4.20
2004,01,03,03,37,-4.20
2004,01,03,03,38,-4.20
2004,01,03,03,39,-4.20
2004,01,03,03,40,-4.20
2004,01,03,03,41,-4.20
2004,01,03,03,42,-4.20
2004,01,03,03,43,-4.20
2004,01,03,03,44,-4.20
2004,01,03,03,45,-4.20
2004,01,03,03,46,-4.20
2004,01,03,03,47,-4.20
2004,01,03,03,48,-4.20
2004,01,03,03,49,-4.20
2004,01,03,03,50,-4.20
2004,01,03,03,51,-4.30
2004,01,03,03,52,-4.30
2004,01,03,03,53,-4.30
2004,01,03,03,54,-4.20
2004,01,03,03,55,-4.30
2004,01,03,03,56,-4.30
2004,01,03,03,57,-4.30
2004,01,03,03,58,-4.20
2004,01,03,03,59,-4.20
2004,01,03,04,00,-4.20
2004,01,03,04,01,-4.20
2004,01,03,04,02,-4.20
2004,01,03,04,03,-4.20
2004,01,03,04,04,-4.30
2004,01,03,04,05,-4.20
2004,01,03,04,06,-4.30
2004,01,03,04,07,-4.30
2004,01,03,04,08,-4.40
2004,01,03,04,09,-4.30
2004,01,03,04,10,-4.30
2004,01,03,04,11,-4.30
2004,01,03,04,12,-4.30
2004,01,03,04,13,-4.30
2004,01,03,04,14,-4.40
2004,01,03,04,15,-4.40
2004,01,03,04,16,-4.30
2004,01,03,04,17,-4.30
2004,01,03,04,18,-4.30
2004,01,03,04,19,-4.20
2004,01,03,04,20,-4.20
2004,01,03,04,21,-4.30
2004,01,03,04,22,-4.30
2004,01,03,04,23,-4.30
2004,01,03,04,24,-4.30
2004,01,03,04,25,-4.20
2004,01,03,04,26,-4.30
2004,01,03,04,27,-4.30
2004,01,03,04,28,-4.30
2004,01,03,04,29,-4.30
2004,01,03,04,30,-4.40
2004,01,03,04,31,-4.40
2004,01,03,04,32,-4.40
2004,01,03,04,33,-4.40
2004,01,03,04,34,-4.40
2004,01,03,04,35,-4.30
2004,01,03,04,36,-4.20
2004,01,03,04,37,-4.20
2004,01,03,04,38,-4.30
2004,01,03,04,39,-4.30
2004,01,03,04,40,-4.30
2004,01,03,04,41,-4.30
2004,01,03,04,42,-4.30
2004,01,03,04,43,-4.20
2004,01,03,04,44,-4.20
2004,01,03,04,45,-4.20
2004,01,03,04,46,-4.20
2004,01,03,04,47,-4.20
2004,01,03,04,48,-4.20
2004,01,03,04,49,-4.20
2004,01,03,04,50,-4.20
2004,01,03,04,51,-4.20
2004,01,03,04,52,-4.20
2004,01,03,04,53,-4.20
2004,01,03,04,54,-4.20
2004,01,03,04,55,-4.20
2004,01,03,04,56,-4.20
2004,01,03,04,57,-4.20
2004,01,03,04,58,-4.20
2004,01,03,04,59,-4.10
2004,01,03,05,00,-4.20
2004,01,03,05,01,-4.20
2004,01,03,05,02,-4.20
2004,01,03,05,03,-4.10
2004,01,03,05,04,-4.10
2004,01,03,05,05,-4.10
2004,01,03,05,06,-4.10
2004,01,03,05,07,-4.00
2004,01,03,05,08,-4.00
2004,01,03,05,09,-4.00
2004,01,03,05,10,-4.00
2004,01,03,05,11,-4.00
2004,01,03,05,12,-4.00
2004,01,03,05,13,-4.00
2004,01,03,05,14,-4.00
2004,01,03,05,15,-4.00
2004,01,03,05,16,-4.10
2004,01,03,05,17,-4.10
2004,01,03,05,18,-4.10
2004,01,03,05,19,-4.10
2004,01,03,05,20,-4.10
2004,01,03,05,21,-4.10
2004,01,03,05,22,-4.10
2004,01,03,05,23,-4.10
2004,01,03,05,24,-4.10
2004,01,03,05,25,-4.10
2004,01,03,05,26,-4.00
2004,01,03,05,27,-3.90
2004,01,03,05,28,-3.90
2004,01,03,05,29,-3.90
2004,01,03,05,30,-3.90
2004,01,03,05,31,-3.90
2004,01,03,05,32,-3.90
2004,01,03,05,33,-3.90
2004,01,03,05,34,-3.90
2004,01,03,05,35,-3.90
2004,01,03,05,36,-3.80
2004,01,03,05,37,-3.80
2004,01,03,05,38,-3.70
2004,01,03,05,39,-3.70
2004,01,03,05,40,-3.80
2004,01,03,05,41,-3.90
2004,01,03,05,42,-3.90
2004,01,03,05,43,-4.00
2004,01,03,05,44,-4.00
2004,01,03,05,45,-4.00
2004,01,03,05,46,-4.00
2004,01,03,05,47,-3.90
2004,01,03,05,48,-3.90
2004,01,03,05,49,-3.90
2004,01,03,05,50,-4.00
2004,01,03,05,51,-4.00
2004,01,03,05,52,-3.90
2004,01,03,05,53,-4.00
2004,01,03,05,54,-3.90
2004,01,03,05,55,-4.00
2004,01,03,05,56,-4.00
2004,01,03,05,57,-4.00
2004,01,03,05,58,-4.00
2004,01,03,05,59,-3.90
2004,01,03,06,00,-3.90
2004,01,03,06,01,-3.90
2004,01,03,06,02,-3.80
2004,01,03,06,03,-3.80
2004,01,03,06,04,-3.80
2004,01,03,06,05,-3.90
2004,01,03,06,06,-3.90
2004,01,03,06,07,-3.90
2004,01,03,06,08,-3.80
2004,01,03,06,09,-3.80
2004,01,03,06,10,-3.90
2004,01,03,06,11,-3.90
2004,01,03,06,12,-4.00
2004,01,03,06,13,-4.10
2004,01,03,06,14,-4.00
2004,01,03,06,15,-4.00
2004,01,03,06,16,-4.00
2004,01,03,06,17,-4.00
2004,01,03,06,18,-4.00
2004,01,03,06,19,-4.00
2004,01,03,06,20,-4.00
2004,01,03,06,21,-4.00
2004,01,03,06,22,-4.00
2004,01,03,06,23,-4.00
2004,01,03,06,24,-4.00
2004,01,03,06,25,-3.90
2004,01,03,06,26,-3.90
2004,01,03,06,27,-3.90
2004,01,03,06,28,-3.90
2004,01,03,06,29,-3.90
2004,01,03,06,30,-3.90
2004,01,03,06,31,-3.90
2004,01,03,06,32,-4.00
2004,01,03,06,33,-4.00
2004,01,03,06,34,-4.00
2004,01,03,06,35,-4.00
2004,01,03,06,36,-4.00
2004,01,03,06,37,-4.00
2004,01,03,06,38,-4.00
2004,01,03,06,39,-4.00
2004,01,03,06,40,-4.00
2004,01,03,06,41,-4.00
2004,01,03,06,42,-3.90
2004,01,03,06,43,-3.90
2004,01,03,06,44,-3.90
2004,01,03,06,45,-3.90
2004,01,03,06,46,-3.90
2004,01,03,06,47,-4.00
2004,01,03,06,48,-4.00
2004,01,03,06,49,-4.00
2004,01,03,06,50,-3.90
2004,01,03,06,51,-3.90
2004,01,03,06,52,-4.00
2004,01,03,06,53,-4.00
2004,01,03,06,54,-3.90
2004,01,03,06,55,-4.00
2004,01,03,06,56,-4.00
2004,01,03,06,57,-4.00
2004,01,03,06,58,-4.00
2004,01,03,06,59,-4.00
2004,01,03,07,00,-4.00
2004,01,03,07,01,-4.00
2004,01,03,07,02,-4.00
2004,01,03,07,03,-4.00
2004,01,03,07,04,-3.90
2004,01,03,07,05,-3.90
2004,01,03,07,06,-3.90
2004,01,03,07,07,-3.90
2004,01,03,07,08,-3.90
2004,01,03,07,09,-4.00
2004,01,03,07,10,-3.90
2004,01,03,07,11,-3.90
2004,01,03,07,12,-3.90
2004,01,03,07,13,-3.80
2004,01,03,07,14,-3.80
2004,01,03,07,15,-3.80
2004,01,03,07,16,-3.80
2004,01,03,07,17,-3.80
2004,01,03,07,18,-3.80
2004,01,03,07,19,-3.80
2004,01,03,07,20,-3.80
2004,01,03,07,21,-3.80
2004,01,03,07,22,-3.80
2004,01,03,07,23,-3.80
2004,01,03,07,24,-3.80
2004,01,03,07,25,-3.80
2004,01,03,07,26,-3.80
2004,01,03,07,27,-3.80
2004,01,03,07,28,-3.80
2004,01,03,07,29,-3.80
2004,01,03,07,30,-3.80
2004,01,03,07,31,-3.70
2004,01,03,07,32,-3.80
2004,01,03,07,33,-3.80
2004,01,03,07,34,-3.80
2004,01,03,07,35,-3.90
2004,01,03,07,36,-3.90
2004,01,03,07,37,-3.90
2004,01,03,07,38,-3.90
2004,01,03,07,39,-3.90
2004,01,03,07,40,-3.90
2004,01,03,07,41,-3.90
2004,01,03,07,42,-3.90
2004,01,03,07,43,-4.00
2004,01,03,07,44,-4.00
2004,01,03,07,45,-4.00
2004,01,03,07,46,-4.00
2004,01,03,07,47,-4.00
2004,01,03,07,48,-4.00
2004,01,03,07,49,-4.00
2004,01,03,07,50,-4.00
2004,01,03,07,51,-4.00
2004,01,03,07,52,-4.00
2004,01,03,07,53,-4.00
2004,01,03,07,54,-4.00
2004,01,03,07,55,-4.10
2004,01,03,07,56,-4.10
2004,01,03,07,57,-4.10
2004,01,03,07,58,-4.20
2004,01,03,07,59,-4.10
2004,01,03,08,00,-4.10
2004,01,03,08,01,-4.10
2004,01,03,08,02,-4.10
2004,01,03,08,03,-4.20
2004,01,03,08,04,-4.20
2004,01,03,08,05,-4.20
2004,01,03,08,06,-4.20
2004,01,03,08,07,-4.20
2004,01,03,08,08,-4.20
2004,01,03,08,09,-4.20
2004,01,03,08,10,-4.20
2004,01,03,08,11,-4.20
2004,01,03,08,12,-4.20
2004,01,03,08,13,-4.20
2004,01,03,08,14,-4.20
2004,01,03,08,15,-4.20
2004,01,03,08,16,-4.20
2004,01,03,08,17,-4.20
2004,01,03,08,18,-4.20
2004,01,03,08,19,-4.20
2004,01,03,08,20,-4.20
2004,01,03,08,21,-4.20
2004,01,03,08,22,-4.10
2004,01,03,08,23,-4.10
2004,01,03,08,24,-4.10
2004,01,03,08,25,-4.10
2004,01,03,08,26,-4.10
2004,01,03,08,27,-4.10
2004,01,03,08,28,-4.20
2004,01,03,08,29,-4.20
2004,01,03,08,30,-4.20
2004,01,03,08,31,-4.20
2004,01,03,08,32,-4.20
2004,01,03,08,33,-4.20
2004,01,03,08,34,-4.20
2004,01,03,08,35,-4.20
2004,01,03,08,36,-4.20
2004,01,03,08,37,-4.20
2004,01,03,08,38,-4.20
2004,01,03,08,39,-4.30
2004,01,03,08,40,-4.30
2004,01,03,08,41,-4.20
2004,01,03,08,42,-4.20
2004,01,03,08,43,-4.20
2004,01,03,08,44,-4.20
2004,01,03,08,45,-4.20
2004,01,03,08,46,-4.20
2004,01,03,08,47,-4.20
2004,01,03,08,48,-4.20
2004,01,03,08,49,-4.20
2004,01,03,08,50,-4.20
2004,01,03,08,51,-4.20
2004,01,03,08,52,-4.20
2004,01,03,08,53,-4.20
2004,01,03,08,54,-4.20
2004,01,03,08,55,-4.20
2004,01,03,08,56,-4.20
2004,01,03,08,57,-4.20
2004,01,03,08,58,-4.20
2004,01,03,08,59,-4.20
2004,01,03,09,00,-4.20
2004,01,03,09,01,-4.20
2004,01,03,09,02,-4.20
2004,01,03,09,03,-4.20
2004,01,03,09,04,-4.20
2004,01,03,09,05,-4.20
2004,01,03,09,06,-4.20
2004,01,03,09,07,-4.20
2004,01,03,09,08,-4.20
2004,01,03,09,09,-4.20
2004,01,03,09,10,-4.20
2004,01,03,09,11,-4.20
2004,01,03,09,12,-4.20
2004,01,03,09,13,-4.20
2004,01,03,09,14,-4.30
2004,01,03,09,15,-4.30
2004,01,03,09,16,-4.30
2004,01,03,09,17,-4.40
2004,01,03,09,18,-4.40
2004,01,03,09,19,-4.40
2004,01,03,09,20,-4.40
2004,01,03,09,21,-4.40
2004,01,03,09,22,-4.30
2004,01,03,09,23,-4.30
2004,01,03,09,24,-4.30
2004,01,03,09,25,-4.30
2004,01,03,09,26,-4.30
2004,01,03,09,27,-4.40
2004,01,03,09,28,-4.40
2004,01,03,09,29,-4.40
2004,01,03,09,30,-4.40
2004,01,03,09,31,-4.40
2004,01,03,09,32,-4.40
2004,01,03,09,33,-4.40
2004,01,03,09,34,-4.50
2004,01,03,09,35,-4.50
2004,01,03,09,36,-4.60
2004,01,03,09,37,-4.50
2004,01,03,09,38,-4.50
2004,01,03,09,39,-4.50
2004,01,03,09,40,-4.50
2004,01,03,09,41,-4.50
2004,01,03,09,42,-4.60
2004,01,03,09,43,-4.50
2004,01,03,09,44,-4.50
2004,01,03,09,45,-4.50
2004,01,03,09,46,-4.50
2004,01,03,09,47,-4.50
2004,01,03,09,48,-4.50
2004,01,03,09,49,-4.50
2004,01,03,09,50,-4.50
2004,01,03,09,51,-4.50
2004,01,03,09,52,-4.50
2004,01,03,09,53,-4.40
2004,01,03,09,54,-4.40
2004,01,03,09,55,-4.30
2004,01,03,09,56,-4.30
2004,01,03,09,57,-4.40
2004,01,03,09,58,-4.40
2004,01,03,09,59,-4.40
2004,01,03,10,00,-4.50
2004,01,03,10,01,-4.50
2004,01,03,10,02,-4.50
2004,01,03,10,03,-4.50
2004,01,03,10,04,-4.50
2004,01,03,10,05,-4.60
2004,01,03,10,06,-4.50
2004,01,03,10,07,-4.60
2004,01,03,10,08,-4.60
2004,01,03,10,09,-4.60
2004,01,03,10,10,-4.60
2004,01,03,10,11,-4.60
2004,01,03,10,12,-4.60
2004,01,03,10,13,-4.50
2004,01,03,10,14,-4.50
2004,01,03,10,15,-4.40
2004,01,03,10,16,-4.40
2004,01,03,10,17,-4.40
2004,01,03,10,18,-4.40
2004,01,03,10,19,-4.50
2004,01,03,10,20,-4.50
2004,01,03,10,21,-4.50
2004,01,03,10,22,-4.40
2004,01,03,10,23,-4.40
2004,01,03,10,24,-4.30
2004,01,03,10,25,-4.20
2004,01,03,10,26,-4.20
2004,01,03,10,27,-4.20
2004,01,03,10,28,-4.30
2004,01,03,10,29,-4.30
2004,01,03,10,30,-4.30
2004,01,03,10,31,-4.40
2004,01,03,10,32,-4.40
2004,01,03,10,33,-4.30
2004,01,03,10,34,-4.30
2004,01,03,10,35,-4.30
2004,01,03,10,36,-4.40
2004,01,03,10,37,-4.50
2004,01,03,10,38,-4.50
2004,01,03,10,39,-4.60
2004,01,03,10,40,-4.60
2004,01,03,10,41,-4.60
2004,01,03,10,42,-4.50
2004,01,03,10,43,-4.50
2004,01,03,10,44,-4.40
2004,01,03,10,45,-4.40
2004,01,03,10,46,-4.40
2004,01,03,10,47,-4.40
2004,01,03,10,48,-4.50
2004,01,03,10,49,-4.50
2004,01,03,10,50,-4.50
2004,01,03,10,51,-4.60
2004,01,03,10,52,-4.60
2004,01,03,10,53,-4.60
2004,01,03,10,54,-4.60
2004,01,03,10,55,-4.50
2004,01,03,10,56,-4.50
2004,01,03,10,57,-4.50
2004,01,03,10,58,-4.60
2004,01,03,10,59,-4.60
2004,01,03,11,00,-4.50
2004,01,03,11,01,-4.50
2004,01,03,11,02,-4.50
2004,01,03,11,03,-4.60
2004,01,03,11,04,-4.60
2004,01,03,11,05,-4.60
2004,01,03,11,06,-4.60
2004,01,03,11,07,-4.60
2004,01,03,11,08,-4.60
2004,01,03,11,09,-4.50
2004,01,03,11,10,-4.50
2004,01,03,11,11,-4.50
2004,01,03,11,12,-4.50
2004,01,03,11,13,-4.50
2004,01,03,11,14,-4.50
2004,01,03,11,15,-4.50
2004,01,03,11,16,-4.50
2004,01,03,11,17,-4.50
2004,01,03,11,18,-4.40
2004,01,03,11,19,-4.50
2004,01,03,11,20,-4.50
2004,01,03,11,21,-4.60
2004,01,03,11,22,-4.60
2004,01,03,11,23,-4.50
2004,01,03,11,24,-4.50
2004,01,03,11,25,-4.50
2004,01,03,11,26,-4.40
2004,01,03,11,27,-4.50
2004,01,03,11,28,-4.50
2004,01,03,11,29,-4.60
2004,01,03,11,30,-4.60
2004,01,03,11,31,-4.60
2004,01,03,11,32,-4.60
2004,01,03,11,33,-4.50
2004,01,03,11,34,-4.60
2004,01,03,11,35,-4.60
2004,01,03,11,36,-4.60
2004,01,03,11,37,-4.50
2004,01,03,11,38,-4.50
2004,01,03,11,39,-4.50
2004,01,03,11,40,-4.50
2004,01,03,11,41,-4.60
2004,01,03,11,42,-4.60
2004,01,03,11,43,-4.60
2004,01,03,11,44,-4.60
2004,01,03,11,45,-4.50
2004,01,03,11,46,-4.50
2004,01,03,11,47,-4.50
2004,01,03,11,48,-4.60
2004,01,03,11,49,-4.70
2004,01,03,11,50,-4.70
2004,01,03,11,51,-4.70
2004,01,03,11,52,-4.70
2004,01,03,11,53,-4.70
2004,01,03,11,54,-4.70
2004,01,03,11,55,-4.70
2004,01,03,11,56,-4.70
2004,01,03,11,57,-4.60
2004,01,03,11,58,-4.60
2004,01,03,11,59,-4.60
2004,01,03,12,00,-4.70
2004,01,03,12,01,-4.70
2004,01,03,12,02,-4.70
2004,01,03,12,03,-4.80
2004,01,03,12,04,-4.70
2004,01,03,12,05,-4.70
2004,01,03,12,06,-4.80
2004,01,03,12,07,-4.80
2004,01,03,12,08,-4.80
2004,01,03,12,09,-4.80
2004,01,03,12,10,-4.70
2004,01,03,12,11,-4.70
2004,01,03,12,12,-4.70
2004,01,03,12,13,-4.80
2004,01,03,12,14,-4.80
2004,01,03,12,15,-4.80
2004,01,03,12,16,-4.70
2004,01,03,12,17,-4.70
2004,01,03,12,18,-4.70
2004,01,03,12,19,-4.70
2004,01,03,12,20,-4.80
2004,01,03,12,21,-4.80
2004,01,03,12,22,-4.80
2004,01,03,12,23,-4.80
2004,01,03,12,24,-4.80
2004,01,03,12,25,-4.90
2004,01,03,12,26,-4.90
2004,01,03,12,27,-4.90
2004,01,03,12,28,-4.90
2004,01,03,12,29,-4.90
2004,01,03,12,30,-4.90
2004,01,03,12,31,-4.90
2004,01,03,12,32,-4.90
2004,01,03,12,33,-4.80
2004,01,03,12,34,-4.90
2004,01,03,12,35,-4.80
2004,01,03,12,36,-4.80
2004,01,03,12,37,-4.80
2004,01,03,12,38,-4.70
2004,01,03,12,39,-4.80
2004,01,03,12,40,-4.80
2004,01,03,12,41,-4.80
2004,01,03,12,42,-4.80
2004,01,03,12,43,-4.80
2004,01,03,12,44,-4.80
2004,01,03,12,45,-4.80
2004,01,03,12,46,-4.80
2004,01,03,12,47,-4.80
2004,01,03,12,48,-4.90
2004,01,03,12,49,-4.90
2004,01,03,12,50,-4.90
2004,01,03,12,51,-4.90
2004,01,03,12,52,-4.90
2004,01,03,12,53,-4.90
2004,01,03,12,54,-4.90
2004,01,03,12,55,-4.90
2004,01,03,12,56,-4.80
2004,01,03,12,57,-4.80
2004,01,03,12,58,-4.70
2004,01,03,12,59,-4.70
2004,01,03,13,00,-4.70
2004,01,03,13,01,-4.70
2004,01,03,13,02,-4.70
2004,01,03,13,03,-4.70
2004,01,03,13,04,-4.70
2004,01,03,13,05,-4.70
2004,01,03,13,06,-4.90
2004,01,03,13,07,-4.90
2004,01,03,13,08,-4.90
2004,01,03,13,09,-4.90
2004,01,03,13,10,-4.90
2004,01,03,13,11,-4.90
2004,01,03,13,12,-4.90
2004,01,03,13,13,-4.90
2004,01,03,13,14,-5.00
2004,01,03,13,15,-5.00
2004,01,03,13,16,-5.00
2004,01,03,13,17,-5.00
2004,01,03,13,18,-4.90
2004,01,03,13,19,-4.80
2004,01,03,13,20,-4.80
2004,01,03,13,21,-4.80
2004,01,03,13,22,-4.80
2004,01,03,13,23,-4.80
2004,01,03,13,24,-4.80
2004,01,03,13,25,-4.90
2004,01,03,13,26,-4.90
2004,01,03,13,27,-4.90
2004,01,03,13,28,-4.90
2004,01,03,13,29,-4.90
2004,01,03,13,30,-4.90
2004,01,03,13,31,-4.90
2004,01,03,13,32,-5.00
2004,01,03,13,33,-5.00
2004,01,03,13,34,-4.90
2004,01,03,13,35,-4.90
2004,01,03,13,36,-4.90
2004,01,03,13,37,-4.80
2004,01,03,13,38,-4.80
2004,01,03,13,39,-4.80
2004,01,03,13,40,-4.90
2004,01,03,13,41,-4.90
2004,01,03,13,42,-4.80
2004,01,03,13,43,-4.80
2004,01,03,13,44,-4.70
2004,01,03,13,45,-4.70
2004,01,03,13,46,-4.70
2004,01,03,13,47,-4.70
2004,01,03,13,48,-4.70
2004,01,03,13,49,-4.80
2004,01,03,13,50,-4.90
2004,01,03,13,51,-4.90
2004,01,03,13,52,-5.00
2004,01,03,13,53,-4.90
2004,01,03,13,54,-4.90
2004,01,03,13,55,-4.90
2004,01,03,13,56,-4.90
2004,01,03,13,57,-4.90
2004,01,03,13,58,-4.90
2004,01,03,13,59,-4.80
2004,01,03,14,00,-4.80
2004,01,03,14,01,-4.80
2004,01,03,14,02,-4.80
2004,01,03,14,03,-4.90
2004,01,03,14,04,-4.90
2004,01,03,14,05,-4.90
2004,01,03,14,06,-4.90
2004,01,03,14,07,-4.90
2004,01,03,14,08,-4.90
2004,01,03,14,09,-4.90
2004,01,03,14,10,-4.90
2004,01,03,14,11,-4.90
2004,01,03,14,12,-4.90
2004,01,03,14,13,-4.90
2004,01,03,14,14,-4.90
2004,01,03,14,15,-4.80
2004,01,03,14,16,-4.70
2004,01,03,14,17,-4.70
2004,01,03,14,18,-4.70
2004,01,03,14,19,-4.70
2004,01,03,14,20,-4.70
2004,01,03,14,21,-4.70
2004,01,03,14,22,-4.70
2004,01,03,14,23,-4.80
2004,01,03,14,24,-4.80
2004,01,03,14,25,-4.80
2004,01,03,14,26,-4.90
2004,01,03,14,27,-4.90
2004,01,03,14,28,-5.00
2004,01,03,14,29,-5.00
2004,01,03,14,30,-5.00
2004,01,03,14,31,-5.00
2004,01,03,14,32,-4.90
2004,01,03,14,33,-4.80
2004,01,03,14,34,-4.80
2004,01,03,14,35,-4.80
2004,01,03,14,36,-4.80
2004,01,03,14,37,-4.80
2004,01,03,14,38,-4.80
2004,01,03,14,39,-4.80
2004,01,03,14,40,-4.80
2004,01,03,14,41,-4.70
2004,01,03,14,42,-4.70
2004,01,03,14,43,-4.70
2004,01,03,14,44,-4.70
2004,01,03,14,45,-4.70
2004,01,03,14,46,-4.70
2004,01,03,14,47,-4.70
2004,01,03,14,48,-4.70
2004,01,03,14,49,-4.70
2004,01,03,14,50,-4.70
2004,01,03,14,51,-4.70
2004,01,03,14,52,-4.70
2004,01,03,14,53,-4.70
2004,01,03,14,54,-4.70
2004,01,03,14,55,-4.70
2004,01,03,14,56,-4.70
2004,01,03,14,57,-4.70
2004,01,03,14,58,-4.70
2004,01,03,14,59,-4.70
2004,01,03,15,00,-4.70
2004,01,03,15,01,-4.70
2004,01,03,15,02,-4.70
2004,01,03,15,03,-4.70
2004,01,03,15,04,-4.70
2004,01,03,15,05,-4.70
2004,01,03,15,06,-4.70
2004,01,03,15,07,-4.70
2004,01,03,15,08,-4.70
2004,01,03,15,09,-4.70
2004,01,03,15,10,-4.70
2004,01,03,15,11,-4.70
2004,01,03,15,12,-4.70
2004,01,03,15,13,-4.70
2004,01,03,15,14,-4.70
2004,01,03,15,15,-4.70
2004,01,03,15,16,-4.70
2004,01,03,15,17,-4.70
2004,01,03,15,18,-4.70
2004,01,03,15,19,-4.70
2004,01,03,15,20,-4.70
2004,01,03,15,21,-4.60
2004,01,03,15,22,-4.60
2004,01,03,15,23,-4.70
2004,01,03,15,24,-4.70
2004,01,03,15,25,-4.70
2004,01,03,15,26,-4.70
2004,01,03,15,27,-4.70
2004,01,03,15,28,-4.70
2004,01,03,15,29,-4.70
2004,01,03,15,30,-4.70
2004,01,03,15,31,-4.70
2004,01,03,15,32,-4.70
2004,01,03,15,33,-4.70
2004,01,03,15,34,-4.70
2004,01,03,15,35,-4.70
2004,01,03,15,36,-4.70
2004,01,03,15,37,-4.70
2004,01,03,15,38,-4.70
2004,01,03,15,39,-4.70
2004,01,03,15,40,-4.70
2004,01,03,15,41,-4.70
2004,01,03,15,42,-4.70
2004,01,03,15,43,-4.70
2004,01,03,15,44,-4.70
2004,01,03,15,45,-4.70
2004,01,03,15,46,-4.70
2004,01,03,15,47,-4.70
2004,01,03,15,48,-4.70
2004,01,03,15,49,-4.70
2004,01,03,15,50,-4.70
2004,01,03,15,51,-4.70
2004,01,03,15,52,-4.70
2004,01,03,15,53,-4.70
2004,01,03,15,54,-4.70
2004,01,03,15,55,-4.70
2004,01,03,15,56,-4.70
2004,01,03,15,57,-4.70
2004,01,03,15,58,-4.70
2004,01,03,15,59,-4.70
2004,01,03,16,00,-4.70
2004,01,03,16,01,-4.70
2004,01,03,16,02,-4.80
2004,01,03,16,03,-4.80
2004,01,03,16,04,-4.80
2004,01,03,16,05,-4.70
2004,01,03,16,06,-4.70
2004,01,03,16,07,-4.70
2004,01,03,16,08,-4.80
2004,01,03,16,09,-4.80
2004,01,03,16,10,-4.80
2004,01,03,16,11,-4.80
2004,01,03,16,12,-4.80
2004,01,03,16,13,-4.70
2004,01,03,16,14,-4.70
2004,01,03,16,15,-4.80
2004,01,03,16,16,-4.80
2004,01,03,16,17,-4.90
2004,01,03,16,18,-4.90
2004,01,03,16,19,-4.90
2004,01,03,16,20,-4.90
2004,01,03,16,21,-4.90
2004,01,03,16,22,-5.00
2004,01,03,16,23,-5.00
2004,01,03,16,24,-4.90
2004,01,03,16,25,-4.90
2004,01,03,16,26,-4.90
2004,01,03,16,27,-4.90
2004,01,03,16,28,-4.90
2004,01,03,16,29,-4.90
2004,01,03,16,30,-4.80
2004,01,03,16,31,-4.80
2004,01,03,16,32,-4.80
2004,01,03,16,33,-4.80
2004,01,03,16,34,-4.80
2004,01,03,16,35,-4.90
2004,01,03,16,36,-4.90
2004,01,03,16,37,-4.90
2004,01,03,16,38,-4.90
2004,01,03,16,39,-4.90
2004,01,03,16,40,-4.80
2004,01,03,16,41,-4.80
2004,01,03,16,42,-4.90
2004,01,03,16,43,-4.90
2004,01,03,16,44,-4.90
2004,01,03,16,45,-4.90
2004,01,03,16,46,-4.90
2004,01,03,16,47,-5.00
2004,01,03,16,48,-5.00
2004,01,03,16,49,-5.00
2004,01,03,16,50,-5.00
2004,01,03,16,51,-5.00
2004,01,03,16,52,-5.10
2004,01,03,16,53,-5.00
2004,01,03,16,54,-5.00
2004,01,03,16,55,-5.00
2004,01,03,16,56,-5.10
2004,01,03,16,57,-5.10
2004,01,03,16,58,-5.00
2004,01,03,16,59,-5.10
2004,01,03,17,00,-5.10
2004,01,03,17,01,-5.10
2004,01,03,17,02,-5.00
2004,01,03,17,03,-5.00
2004,01,03,17,04,-5.00
2004,01,03,17,05,-5.10
2004,01,03,17,06,-5.10
2004,01,03,17,07,-5.00
2004,01,03,17,08,-5.10
2004,01,03,17,09,-5.00
2004,01,03,17,10,-5.10
2004,01,03,17,11,-5.10
2004,01,03,17,12,-5.00
2004,01,03,17,13,-5.00
2004,01,03,17,14,-5.00
2004,01,03,17,15,-5.10
2004,01,03,17,16,-5.10
2004,01,03,17,17,-5.10
2004,01,03,17,18,-5.20
2004,01,03,17,19,-5.20